DateTimeUTC,F1_A11,F1_S11,BsB_S11,BsG_S11,BsR_S11,BbsB_S11,BbsG_S11,BbsR_S11,BaB_A11,BaG_A11,BaR_A11,T_S11,U_S11,P_S11,T1_A11
2020-05-03T00:00:00Z,00000380,21000600,,,,,,,,,,24.2,00.0,0661.7,30.7
2020-05-03T00:01:00Z,00000380,21000600,,,,,,,,,,24.3,00.0,0661.8,30.7
2020-05-03T00:02:00Z,00000380,21000600,,,,,,,,,,24.3,00.0,0661.8,30.7
2020-05-03T00:03:00Z,00000380,61000600,,,,,,,,,,24.3,00.0,0661.8,30.7
2020-05-03T00:04:00Z,00000380,41000600,0001.24,0000.97,0000.26,0000.65,0000.37,-000.36,0000.08,0000.09,0000.20,24.1,00.0,0662.7,30.7
2020-05-03T00:05:00Z,00000380,01000600,0001.37,0000.98,0000.13,0000.11,0000.32,0000.73,0000.20,0000.24,0000.13,24.0,00.0,0662.8,30.7
2020-05-03T00:06:00Z,00000380,01000600,0002.36,0000.76,0000.34,0000.43,0000.51,0000.28,0000.13,0000.02,0000.13,24.0,00.0,0662.8,30.7
2020-05-03T00:07:00Z,00000380,01000600,0002.21,0001.12,0000.60,-000.25,0000.42,0000.11,0000.16,0000.27,0000.10,24.0,00.0,0662.8,30.7
2020-05-03T00:08:00Z,00000380,01000600,0002.44,0000.83,0000.48,0000.63,0000.14,-000.27,0000.05,0000.02,0000.01,24.0,00.0,0662.7,30.7
2020-05-03T00:09:00Z,00000380,01000600,0001.29,0000.29,0000.33,-000.03,0000.55,0000.22,0000.07,-000.02,-000.01,24.0,00.0,0662.7,30.7
2020-05-03T00:10:00Z,00000380,01000600,0000.97,0000.76,0000.43,-000.18,0000.39,0000.14,0000.20,0000.17,0000.19,24.0,00.0,0662.7,30.7
2020-05-03T00:11:00Z,00000380,01000600,0001.28,0000.95,0000.10,-000.10,0000.39,0000.49,0000.20,0000.22,0000.26,24.0,00.0,0662.8,30.7
2020-05-03T00:12:00Z,00000380,01000600,0003.06,0001.12,0000.34,0001.30,0000.32,-000.42,-000.02,-000.01,-000.11,24.0,00.0,0662.7,30.7
2020-05-03T00:13:00Z,00000380,01000600,0002.47,0000.81,0000.37,0000.32,0000.24,-000.09,0000.07,0000.19,0000.08,24.0,00.0,0662.7,30.7
2020-05-03T00:14:00Z,00000380,01000600,0001.62,0001.84,0001.54,-000.22,0000.23,0000.35,0000.20,0000.13,0000.06,24.0,00.0,0662.7,30.7
2020-05-03T00:15:00Z,00000380,01000600,0003.11,0001.83,0001.01,0000.82,0000.78,0000.33,0000.29,0000.19,0000.18,24.0,00.0,0662.7,30.7
2020-05-03T00:16:00Z,00000380,01000600,0003.02,0001.44,0001.31,0000.50,0000.48,0000.06,0000.16,0000.06,0000.12,24.0,00.0,0662.7,30.7
2020-05-03T00:17:00Z,00000380,01000600,0003.64,0001.75,0000.66,0000.42,0000.65,0000.18,0000.17,0000.11,0000.01,23.9,00.0,0662.7,30.7
2020-05-03T00:18:00Z,00000380,01000600,0004.27,0001.31,0001.31,0000.11,0000.43,0000.31,0000.25,0000.17,0000.22,23.9,00.0,0662.7,30.7
2020-05-03T00:19:00Z,00000380,01000600,0003.09,0001.47,0001.11,0000.91,0000.88,0000.12,0000.17,0000.48,0000.18,23.9,00.0,0662.7,30.8
2020-05-03T00:20:00Z,00000380,01000600,0002.39,0001.39,0001.07,-000.50,0000.66,0000.12,0000.16,-000.11,-000.01,23.9,00.0,0662.6,30.7
2020-05-03T00:21:00Z,00000380,01000600,0001.46,0001.20,0001.05,0000.42,0000.14,0000.08,0000.27,0000.30,0000.30,23.9,00.0,0662.6,30.7
2020-05-03T00:22:00Z,00000380,01000600,0002.75,0000.95,0001.07,-000.90,0000.08,0000.36,0000.01,0000.08,0000.07,23.9,00.0,0662.6,30.7
2020-05-03T00:23:00Z,00000380,01000600,0002.10,0000.91,0000.71,-000.74,0000.41,0000.12,0000.14,0000.23,0000.12,23.9,00.0,0662.6,30.7
2020-05-03T00:24:00Z,00000380,01000600,0001.92,0001.18,0000.71,0000.49,0000.65,0000.19,0000.17,0000.13,0000.10,23.9,00.0,0662.6,30.7
2020-05-03T00:25:00Z,00000380,01000600,0001.16,0001.03,0000.80,0000.01,0000.43,0000.43,0000.12,0000.03,0000.06,23.9,00.0,0662.6,30.7
2020-05-03T00:26:00Z,00000380,01000600,0002.45,0000.80,0000.80,0000.29,0000.57,0000.03,0000.08,0000.23,0000.12,23.9,00.0,0662.6,30.7
2020-05-03T00:27:00Z,00000380,01000600,0001.40,0000.63,0000.48,-000.30,0000.36,-000.09,0000.21,0000.17,0000.10,23.9,00.0,0662.6,30.7
2020-05-03T00:28:00Z,00000380,01000600,0002.40,0001.26,0000.30,0000.30,0000.42,0000.20,0000.09,0000.11,0000.09,23.9,00.0,0662.6,30.7
2020-05-03T00:29:00Z,00000380,01000600,0000.78,0000.86,0000.37,-000.30,0000.43,0000.20,0000.11,0000.01,0000.14,23.9,00.0,0662.6,30.7
2020-05-03T00:30:00Z,00000380,01000600,0002.33,0001.58,0001.17,0000.81,0000.80,0000.62,0000.13,0000.24,0000.03,23.9,00.0,0662.6,30.8
2020-05-03T00:31:00Z,00000380,01000600,0002.09,0001.26,0001.24,-000.19,0000.58,0000.52,0000.18,0000.15,0000.04,23.9,00.0,0662.6,30.7
2020-05-03T00:32:00Z,00000380,01000600,0002.02,0001.86,0000.96,0000.39,0000.59,0000.11,0000.24,0000.05,0000.20,23.9,00.0,0662.6,30.7
2020-05-03T00:33:00Z,00000380,01000600,0003.71,0001.48,0001.19,-000.13,0000.33,0000.24,0000.29,0000.32,0000.07,23.9,00.0,0662.5,30.7
2020-05-03T00:34:00Z,00000380,01000600,0003.46,0001.66,0000.73,-000.59,0000.59,0000.03,0000.19,0000.13,0000.15,23.9,00.0,0662.5,30.7
2020-05-03T00:35:00Z,00000380,01000600,0001.82,0001.97,0000.75,-000.06,0000.63,0000.44,0000.26,0000.18,0000.19,23.9,00.0,0662.5,30.7
2020-05-03T00:36:00Z,00000380,01000600,0003.12,0001.62,0000.47,0000.01,0000.11,-000.02,0000.02,0000.16,0000.21,23.9,00.0,0662.5,30.7
2020-05-03T00:37:00Z,00000380,01000600,0003.50,0001.44,0001.07,0000.58,0000.13,0000.15,0000.34,0000.30,0000.02,23.9,00.0,0662.5,30.7
2020-05-03T00:38:00Z,00000380,01000600,0002.48,0001.56,0000.71,0000.04,0000.31,0000.37,0000.15,0000.05,0000.13,23.8,00.0,0662.5,30.7
2020-05-03T00:39:00Z,00000380,01000600,0002.35,0001.27,0000.72,0000.41,0000.59,0000.20,0000.12,0000.10,0000.10,23.8,00.0,0662.5,30.7
2020-05-03T00:40:00Z,00000380,01000600,0001.99,0000.69,0000.68,0001.26,0000.19,0000.10,0000.17,0000.22,-000.07,23.8,00.0,0662.5,30.7
2020-05-03T00:41:00Z,00000380,01000600,0002.11,0001.09,0000.04,0000.33,0000.20,0000.01,0000.22,0000.04,0000.30,23.8,00.0,0662.5,30.7
2020-05-03T00:42:00Z,00000380,01000600,0001.59,0000.88,0000.29,0000.77,0000.41,0000.18,-000.05,0000.22,-000.05,23.8,00.0,0662.5,30.7
2020-05-03T00:43:00Z,00000380,01000600,0003.59,0001.30,0000.54,0000.89,0000.07,-000.01,0000.19,0000.14,0000.22,23.8,00.0,0662.5,30.7
2020-05-03T00:44:00Z,00000380,01000600,0001.60,0000.80,0000.22,-000.36,0000.40,-000.04,0000.24,0000.14,0000.18,23.8,00.0,0662.5,30.7
2020-05-03T00:45:00Z,00000380,01000600,0002.67,0000.69,0000.17,-000.86,0000.81,0000.26,0000.08,0000.19,0000.07,23.8,00.0,0662.4,30.7
2020-05-03T00:46:00Z,00000380,01000600,0001.33,0001.29,0000.33,0001.09,0000.13,-000.27,0000.11,0000.05,0000.06,23.7,00.0,0662.4,30.7
2020-05-03T00:47:00Z,00000380,01000600,0002.62,0001.26,0000.56,-000.28,0000.14,-000.03,0000.10,0000.11,0000.12,23.7,00.0,0662.4,30.7
2020-05-03T00:48:00Z,00000380,01000600,0001.53,0001.10,0000.42,-000.06,0000.27,0000.25,0000.19,0000.11,0000.11,23.7,00.0,0662.4,30.7
2020-05-03T00:49:00Z,00000380,01000600,0002.39,0000.66,0000.82,0000.29,0000.12,0000.22,-000.03,0000.16,0000.01,23.7,00.0,0662.4,30.7
2020-05-03T00:50:00Z,00000380,01000600,0001.39,0001.18,0000.89,0000.57,0000.86,0000.01,0000.33,0000.12,0000.24,23.7,00.0,0662.4,30.7
2020-05-03T00:51:00Z,00000380,01000600,0001.63,0000.90,0000.30,-000.59,0000.33,-000.09,0000.04,0000.19,-000.06,23.7,00.0,0662.4,30.7
2020-05-03T00:52:00Z,00000380,01000600,0001.26,0000.97,0000.60,0000.04,0000.49,0000.37,0000.12,0000.06,0000.17,23.7,00.0,0662.4,30.7
2020-05-03T00:53:00Z,00000380,01000600,0002.44,0000.86,0000.66,0000.62,0000.91,-000.07,0000.12,0000.12,0000.04,23.7,00.0,0662.4,30.7
2020-05-03T00:54:00Z,00000380,01000600,0000.96,0000.48,0000.50,0000.20,0000.51,-000.31,0000.17,0000.16,0000.13,23.7,00.0,0662.3,30.7
2020-05-03T00:55:00Z,00000380,01000600,0002.33,0000.91,0000.85,0000.05,0000.19,-000.14,-000.03,0000.06,0000.10,23.7,00.0,0662.3,30.7
2020-05-03T00:56:00Z,00000380,01000600,0002.15,0000.93,-000.09,-000.75,0000.53,0000.06,0000.22,0000.05,0000.10,23.7,00.0,0662.3,30.7
2020-05-03T00:57:00Z,00000380,41000600,,,,,,,,,,23.7,00.0,0662.3,30.7
2020-05-03T00:58:00Z,00000380,61000600,,,,,,,,,,23.8,00.0,0661.3,30.7
2020-05-03T00:59:00Z,00000380,21000600,,,,,,,,,,23.9,00.0,0661.3,30.7
2020-05-03T01:00:00Z,00000380,21000600,,,,,,,,,,23.9,00.0,0661.3,30.7
2020-05-03T01:01:00Z,00000380,21000600,,,,,,,,,,23.9,00.0,0661.3,30.7
2020-05-03T01:02:00Z,00000380,21000600,,,,,,,,,,23.9,00.0,0661.3,30.7
2020-05-03T01:03:00Z,00000380,61000600,,,,,,,,,,24.0,00.0,0661.3,30.7
2020-05-03T01:04:00Z,00000380,41000600,0001.31,0001.10,0000.74,-000.08,0000.27,-000.09,0000.04,0000.05,0000.09,23.7,00.0,0662.2,30.7
2020-05-03T01:05:00Z,00000380,01000600,0000.61,0001.54,0000.33,0000.42,0001.07,0000.28,0000.16,0000.15,0000.04,23.7,00.0,0662.3,30.7
2020-05-03T01:06:00Z,00000380,01000600,0002.11,0001.57,0000.59,-000.27,0000.25,0000.24,0000.27,0000.13,0000.17,23.7,00.0,0662.2,30.7
2020-05-03T01:07:00Z,00000380,01000600,0001.66,0001.10,0000.15,0000.07,0000.27,0000.22,0000.08,-000.02,0000.06,23.6,00.0,0662.2,30.7
2020-05-03T01:08:00Z,00000380,01000600,0002.00,0001.71,0000.93,-000.24,0000.66,0000.41,0000.16,0000.35,0000.17,23.6,00.0,0662.2,30.7
2020-05-03T01:09:00Z,00000380,01000600,0001.85,0001.56,0000.63,0000.26,0000.20,0000.19,0000.21,0000.13,0000.10,23.7,00.0,0662.2,30.7
2020-05-03T01:10:00Z,00000380,01000600,0002.72,0000.66,0001.03,0000.75,0000.44,0000.48,0000.31,0000.17,0000.21,23.6,00.0,0662.2,30.7
2020-05-03T01:11:00Z,00000380,01000600,0001.09,0001.14,0000.19,0000.26,0000.40,0000.26,0000.13,0000.15,0000.03,23.6,00.0,0662.1,30.7
2020-05-03T01:12:00Z,00000380,01000600,0001.26,0001.05,0000.74,0000.14,0000.46,0000.69,0000.29,0000.22,0000.18,23.6,00.0,0662.2,30.7
2020-05-03T01:13:00Z,00000380,01000600,0001.29,0000.80,0000.56,0000.10,0000.17,0000.33,0000.05,0000.12,0000.01,23.6,00.0,0662.1,30.7
2020-05-03T01:14:00Z,00000380,01000600,0001.16,0000.17,-000.22,-000.35,0000.46,0000.24,0000.24,0000.08,0000.25,23.6,00.0,0662.1,30.7
2020-05-03T01:15:00Z,00000380,01000600,0001.60,0001.37,0000.52,-000.67,0000.31,0000.28,0000.13,0000.23,-000.04,23.6,00.0,0662.2,30.7
2020-05-03T01:16:00Z,00000380,01000600,0000.88,0001.41,0000.76,-000.18,0000.52,0000.36,0000.19,0000.17,0000.22,23.6,00.0,0662.2,30.7
2020-05-03T01:17:00Z,00000380,01000600,0002.18,0001.75,0000.80,0000.65,0000.46,0000.32,0000.25,0000.22,0000.15,23.6,00.0,0662.1,30.7
2020-05-03T01:18:00Z,00000380,01000600,0002.35,0001.50,0001.04,0000.20,0000.40,0000.07,0000.05,0000.12,0000.04,23.5,00.0,0662.2,30.7
2020-05-03T01:19:00Z,00000380,01000600,0002.68,0000.98,0000.48,-000.35,0000.72,0000.39,0000.18,0000.14,0000.16,23.5,00.0,0662.2,30.7
2020-05-03T01:20:00Z,00000380,01000600,0002.78,0001.81,0000.02,0000.55,0000.84,-000.01,0000.45,0000.30,0000.14,23.5,00.0,0662.2,30.7
2020-05-03T01:21:00Z,00000380,01000600,0001.52,0001.40,0000.73,-000.72,0000.42,0000.26,0000.09,0000.18,0000.25,23.5,00.0,0662.2,30.7
2020-05-03T01:22:00Z,00000380,01000600,0002.60,0001.25,0000.11,-000.39,0000.58,0000.25,0000.13,0000.08,-000.03,23.5,00.0,0662.2,30.7
2020-05-03T01:23:00Z,00000380,01000600,0000.80,0000.98,0000.16,0000.08,0000.76,-000.05,0000.38,0000.18,0000.26,23.5,00.0,0662.2,30.7
2020-05-03T01:24:00Z,00000380,01000600,0002.10,0000.63,-000.13,-000.61,0000.47,0000.10,0000.06,0000.15,0000.25,23.5,00.0,0662.1,30.7
2020-05-03T01:25:00Z,00000380,01000600,0001.66,0000.85,0000.01,0000.38,0000.36,-000.26,0000.19,0000.19,0000.13,23.5,00.0,0662.1,30.7
2020-05-03T01:26:00Z,00000380,01000600,0001.78,0001.17,0000.68,0000.93,0000.31,-000.02,0000.06,0000.19,0000.08,23.5,00.0,0662.1,30.7
2020-05-03T01:27:00Z,00000380,01000600,0002.30,0001.26,0000.60,0000.14,0000.84,0000.38,0000.07,0000.08,-000.02,23.4,00.0,0662.1,30.7
2020-05-03T01:28:00Z,00000380,01000600,0002.84,0001.45,0000.44,0001.02,0000.73,0000.32,0000.35,0000.18,0000.16,23.4,00.0,0662.1,30.7
2020-05-03T01:29:00Z,00000380,01000600,0003.10,0001.00,0000.56,-000.09,0000.54,0000.50,0000.11,0000.24,0000.21,23.4,00.0,0662.1,30.7
2020-05-03T01:30:00Z,00000380,01000600,0003.44,0001.82,0000.74,-000.17,0000.68,0000.29,0000.20,0000.16,0000.02,23.4,00.0,0662.1,30.7
2020-05-03T01:31:00Z,00000380,01000600,0001.92,0001.48,0000.56,0000.58,0000.80,0000.31,0000.27,0000.20,0000.27,23.4,00.0,0662.1,30.7
2020-05-03T01:32:00Z,00000380,01000600,0001.89,0001.63,0000.81,0000.40,0000.56,0000.01,0000.09,0000.10,0000.05,23.4,00.0,0662.1,30.7
2020-05-03T01:33:00Z,00000380,01000600,0001.81,0002.24,0000.61,-000.01,0000.62,0000.21,0000.37,0000.28,0000.16,23.4,00.0,0662.0,30.7
2020-05-03T01:34:00Z,00000380,01000600,0002.12,0001.62,0000.74,0000.16,0000.26,0000.16,0000.12,0000.13,0000.14,23.4,00.0,0662.0,30.7
2020-05-03T01:35:00Z,00000380,01000600,0002.56,0002.49,0000.44,0000.27,0000.87,0000.34,0000.20,0000.25,0000.12,23.4,00.0,0662.0,30.7
2020-05-03T01:36:00Z,00000380,01000600,0003.55,0001.87,0000.35,0000.65,0000.55,0000.16,0000.31,0000.19,0000.01,23.4,00.0,0662.0,30.7
2020-05-03T01:37:00Z,00000380,01000600,0003.65,0001.86,0000.92,-000.66,0000.66,0000.17,0000.13,0000.13,0000.29,23.3,00.0,0662.0,30.7
2020-05-03T01:38:00Z,00000380,01000600,0001.16,0001.18,0000.85,0000.82,0000.74,0000.17,0000.32,0000.25,0000.20,23.3,00.0,0662.0,30.7
2020-05-03T01:39:00Z,00000380,01000600,0003.89,0001.26,0000.78,0001.15,0000.56,-000.20,0000.25,0000.15,0000.12,23.3,00.0,0662.0,30.7
2020-05-03T01:40:00Z,00000380,01000600,0003.77,0001.82,0000.95,0000.40,0000.06,-000.08,0000.15,0000.24,0000.15,23.3,00.0,0662.0,30.7
2020-05-03T01:41:00Z,00000380,01000600,0002.21,0001.54,0001.13,-000.37,0000.48,0000.57,0000.15,0000.25,0000.28,23.3,00.0,0661.9,30.7
2020-05-03T01:42:00Z,00000380,01000600,0003.27,0001.78,0000.58,0001.21,0000.60,-000.14,0000.32,0000.20,0000.15,23.3,00.0,0661.9,30.7
2020-05-03T01:43:00Z,00000380,01000600,0003.73,0001.31,0001.30,0000.35,0000.58,0000.26,0000.28,0000.30,0000.06,23.3,00.0,0661.9,30.7
2020-05-03T01:44:00Z,00000380,01000600,0000.75,0001.96,0000.89,0000.81,0000.92,0000.45,0000.20,0000.11,0000.13,23.3,00.0,0661.9,30.7
2020-05-03T01:45:00Z,00000380,01000600,0003.28,0001.42,0000.53,0000.85,0000.43,0000.24,0000.01,0000.10,0000.12,23.3,00.0,0661.9,30.7
2020-05-03T01:46:00Z,00000380,01000600,0002.11,0001.56,0001.07,-000.22,0000.19,0000.57,0000.37,0000.28,0000.27,23.3,00.0,0661.9,30.7
2020-05-03T01:47:00Z,00000380,01000600,0002.33,0001.51,0000.72,-000.12,0000.52,0000.13,0000.26,0000.24,0000.11,23.3,00.0,0661.9,30.7
2020-05-03T01:48:00Z,00000380,01000600,0002.34,0001.85,0000.64,0000.54,0000.59,-000.04,0000.18,0000.20,0000.14,23.3,00.0,0661.8,30.7
2020-05-03T01:49:00Z,00000380,01000600,0002.24,0001.48,0000.51,0000.91,0000.48,0000.25,0000.10,0000.16,0000.17,23.3,00.0,0661.8,30.7
2020-05-03T01:50:00Z,00000380,01000600,0002.05,0001.08,0000.45,0001.11,0000.64,-000.01,0000.17,0000.05,0000.16,23.3,00.0,0661.8,30.7
2020-05-03T01:51:00Z,00000380,01000600,0002.39,0001.12,0000.76,0000.01,0000.83,-000.08,0000.19,0000.21,0000.03,23.3,00.0,0661.8,30.7
2020-05-03T01:52:00Z,00000380,01000600,0003.89,0001.45,0000.46,-000.55,0000.81,0000.17,0000.18,0000.24,0000.17,23.3,00.0,0661.8,30.7
2020-05-03T01:53:00Z,00000380,01000600,0002.30,0001.66,0000.51,0000.63,0000.75,0000.35,0000.17,0000.06,0000.13,23.3,00.0,0661.8,30.7
2020-05-03T01:54:00Z,00000380,01000600,0001.63,0001.70,0000.54,0000.34,0000.74,-000.11,0000.22,0000.23,-000.01,23.3,00.0,0661.8,30.7
2020-05-03T01:55:00Z,00000380,01000600,0002.91,0001.57,0000.92,0000.44,0000.57,0000.08,0000.08,0000.06,0000.18,23.3,00.0,0661.8,30.7
2020-05-03T01:56:00Z,00000380,01000600,0002.43,0001.30,0000.65,0000.41,0001.02,0000.10,0000.24,0000.22,0000.13,23.3,00.0,0661.8,30.7
2020-05-03T01:57:00Z,00000380,41000600,,,,,,,,,,23.3,00.0,0661.8,30.7
2020-05-03T01:58:00Z,00000380,61000600,,,,,,,,,,23.4,00.0,0660.7,30.7
2020-05-03T01:59:00Z,00000380,21000600,,,,,,,,,,23.5,00.0,0660.7,30.7
2020-05-03T02:00:00Z,00000380,21000600,,,,,,,,,,23.5,00.0,0660.7,30.7
2020-05-03T02:01:00Z,00000380,21000600,,,,,,,,,,23.5,00.0,0660.7,30.7
2020-05-03T02:02:00Z,00000380,21000600,,,,,,,,,,23.5,00.0,0660.7,30.7
2020-05-03T02:03:00Z,00000380,61000600,,,,,,,,,,23.5,00.0,0660.7,30.7
2020-05-03T02:04:00Z,00000380,41000600,0002.18,0001.40,0000.94,0000.47,0000.31,0000.10,0000.41,0000.20,0000.10,23.3,00.0,0661.6,30.7
2020-05-03T02:05:00Z,00000380,01000600,0002.79,0001.71,0001.32,0000.83,0000.59,-000.04,0000.16,0000.12,0000.25,23.3,00.0,0661.7,30.7
2020-05-03T02:06:00Z,00000380,01000600,0003.23,0002.56,0001.38,0000.61,0000.40,0000.61,0000.15,0000.18,0000.05,23.3,00.0,0661.7,30.7
2020-05-03T02:07:00Z,00000380,01000600,0002.58,0002.53,0001.23,0000.89,0000.26,-000.12,0000.39,0000.23,0000.25,23.3,00.0,0661.7,30.7
2020-05-03T02:08:00Z,00000380,01000600,0004.39,0002.79,0001.53,0000.26,0000.78,0000.40,0000.03,0000.33,0000.22,23.3,00.0,0661.7,30.7
2020-05-03T02:09:00Z,00000380,01000600,0003.82,0001.71,0001.61,0000.88,0000.86,0000.23,0000.31,0000.10,0000.02,23.3,00.0,0661.6,30.7
2020-05-03T02:10:00Z,00000380,01000600,0004.64,0002.14,0001.37,0001.31,0000.69,0000.17,0000.14,0000.24,0000.23,23.2,00.0,0661.7,30.7
2020-05-03T02:11:00Z,00000380,01000600,0003.64,0003.16,0001.30,0000.34,0000.57,0000.03,0000.37,0000.24,0000.11,23.3,00.0,0661.7,30.7
2020-05-03T02:12:00Z,00000380,01000600,0005.18,0002.43,0001.51,0000.62,0000.49,0000.17,0000.24,0000.22,0000.21,23.3,00.0,0661.7,30.7
2020-05-03T02:13:00Z,00000380,01000600,0002.27,0002.99,0001.18,0000.53,0000.55,0000.07,0000.31,0000.26,0000.24,23.2,00.0,0661.6,30.7
2020-05-03T02:14:00Z,00000380,01000600,0003.95,0002.95,0001.71,0000.37,0000.36,0000.25,0000.12,0000.18,0000.02,23.3,00.0,0661.6,30.7
2020-05-03T02:15:00Z,00000380,01000600,0003.09,0003.50,0001.81,0000.13,0000.72,0000.15,0000.41,0000.36,0000.30,23.2,00.0,0661.7,30.7
2020-05-03T02:16:00Z,00000380,01000600,0004.17,0002.69,0001.22,0000.56,0000.18,0000.22,0000.16,0000.21,0000.10,23.2,00.0,0661.7,30.7
2020-05-03T02:17:00Z,00000380,01000600,0004.62,0002.75,0001.82,0000.77,0000.33,0000.36,0000.27,0000.22,0000.18,23.2,00.0,0661.6,30.7
2020-05-03T02:18:00Z,00000380,01000600,0004.67,0002.94,0001.80,0000.17,0000.69,0000.22,0000.28,0000.09,0000.16,23.3,00.0,0661.6,30.7
2020-05-03T02:19:00Z,00000380,01000600,0004.88,0002.85,0001.66,0000.29,0000.26,0000.30,0000.40,0000.42,0000.27,23.2,00.0,0661.6,30.7
2020-05-03T02:20:00Z,00000380,01000600,0004.78,0003.56,0001.99,0000.92,0000.91,0000.10,0000.33,0000.36,0000.23,23.2,00.0,0661.6,30.7
2020-05-03T02:21:00Z,00000380,01000600,0003.18,0002.64,0001.46,0000.46,0000.74,0000.32,0000.22,0000.16,0000.16,23.2,00.0,0661.6,30.7
2020-05-03T02:22:00Z,00000380,01000600,0004.03,0002.50,0002.02,0000.70,0000.53,0000.20,0000.54,0000.62,0000.58,23.2,00.0,0661.6,30.7
2020-05-03T02:23:00Z,00000380,01000600,0004.41,0003.00,0001.65,0000.85,0000.21,0000.52,0000.20,-000.05,-000.08,23.2,00.0,0661.6,30.7
2020-05-03T02:24:00Z,00000380,01000600,0005.53,0002.83,0001.60,0000.91,0000.47,0000.54,0000.22,0000.14,0000.20,23.2,00.0,0661.6,30.7
2020-05-03T02:25:00Z,00000380,01000600,0004.99,0003.42,0001.84,0000.95,0001.18,-000.02,0000.18,0000.32,0000.09,23.2,00.0,0661.6,30.7
2020-05-03T02:26:00Z,00000380,01000600,0004.49,0002.98,0001.66,0000.60,0000.40,0000.38,0000.39,0000.34,0000.26,23.2,00.0,0661.6,30.7
2020-05-03T02:27:00Z,00000380,01000600,0004.80,0003.00,0001.78,0000.60,0000.67,0000.54,0000.23,0000.29,0000.12,23.2,00.0,0661.6,30.7
2020-05-03T02:28:00Z,00000380,01000600,0004.45,0003.39,0001.28,0000.28,0000.56,0000.16,0000.28,0000.10,0000.19,23.2,00.0,0661.6,30.7
2020-05-03T02:29:00Z,00000380,01000600,0005.11,0003.22,0001.97,0000.50,0000.42,0000.99,0000.38,0000.45,0000.28,23.2,00.0,0661.6,30.7
2020-05-03T02:30:00Z,00000380,01000600,0004.67,0003.44,0002.13,0001.08,0000.99,0000.46,0000.26,0000.23,0000.20,23.2,00.0,0661.6,30.7
2020-05-03T02:31:00Z,00000380,01000600,0004.66,0003.28,0001.91,0001.00,0000.68,0000.69,0000.32,0000.22,0000.29,23.2,00.0,0661.6,30.7
2020-05-03T02:32:00Z,00000380,01000600,0005.98,0003.51,0001.72,0001.23,0001.04,-000.03,0000.30,0000.40,0000.07,23.2,00.0,0661.5,30.7
2020-05-03T02:33:00Z,00000380,01000600,0005.04,0003.19,0002.55,0000.52,0000.69,0000.60,0000.31,0000.38,0000.34,23.2,00.0,0661.5,30.7
2020-05-03T02:34:00Z,00000380,01000600,0004.34,0003.12,0001.93,0001.19,0000.48,0000.22,0000.38,0000.10,0000.20,23.2,00.0,0661.5,30.6
2020-05-03T02:35:00Z,00000380,01000600,0003.84,0003.49,0001.75,0000.60,0000.84,0000.32,0000.29,0000.53,0000.34,23.2,00.0,0661.5,30.7
2020-05-03T02:36:00Z,00000380,01000600,0005.03,0003.06,0001.97,0000.27,0000.58,0000.40,0000.45,0000.23,0000.34,23.2,00.0,0661.5,30.7
2020-05-03T02:37:00Z,00000380,01000600,0005.56,0003.97,0001.73,0000.46,0000.94,0000.53,0000.32,0000.37,0000.08,23.2,00.0,0661.5,30.7
2020-05-03T02:38:00Z,00000380,01000600,0005.10,0003.44,0001.97,0001.13,0000.53,0000.36,0000.15,0000.15,0000.19,23.2,00.0,0661.5,30.7
2020-05-03T02:39:00Z,00000380,01000600,0005.91,0003.39,0002.08,0000.94,0001.14,0000.55,0000.32,0000.48,0000.30,23.2,00.0,0661.4,30.6
2020-05-03T02:40:00Z,00000380,01000600,0004.69,0003.49,0002.39,0000.89,0001.19,0000.19,0000.25,-000.09,0000.20,23.1,00.0,0661.4,30.6
2020-05-03T02:41:00Z,00000380,01000600,0004.97,0003.60,0001.94,0000.51,0000.12,0000.29,0000.40,0000.67,0000.28,23.2,00.0,0661.4,30.6
2020-05-03T02:42:00Z,00000380,01000600,0005.53,0003.66,0001.47,0001.42,0000.67,0000.27,0000.36,0000.22,0000.32,23.1,00.0,0661.4,30.6
2020-05-03T02:43:00Z,00000380,01000600,0005.56,0003.70,0002.57,-000.05,0000.52,0000.30,0000.33,0000.25,0000.17,23.1,00.0,0661.4,30.6
2020-05-03T02:44:00Z,00000380,01000600,0004.49,0003.32,0002.39,0000.82,0000.95,0000.35,0000.18,0000.26,0000.27,23.1,00.0,0661.3,30.6
2020-05-03T02:45:00Z,00000380,01000600,0004.63,0003.14,0001.97,0000.27,0000.51,0000.21,0000.26,0000.25,0000.01,23.1,00.0,0661.3,30.6
2020-05-03T02:46:00Z,00000380,01000600,0004.94,0004.11,0001.86,0000.63,0000.77,0000.51,0000.28,0000.10,0000.19,23.1,00.0,0661.3,30.6
2020-05-03T02:47:00Z,00000380,01000600,0005.11,0003.55,0001.80,0000.46,0001.04,0000.25,0000.25,0000.32,0000.04,23.1,00.0,0661.3,30.6
2020-05-03T02:48:00Z,00000380,01000600,0004.99,0003.76,0001.80,0000.60,0000.72,0000.45,0000.28,0000.17,0000.30,23.1,00.0,0661.3,30.6
2020-05-03T02:49:00Z,00000380,01000600,0004.54,0003.32,0002.24,0000.35,0001.06,0000.28,0000.38,0000.28,0000.16,23.1,00.0,0661.4,30.6
2020-05-03T02:50:00Z,00000380,01000600,0004.79,0003.24,0001.88,0000.76,0000.47,0000.24,0000.21,0000.25,0000.07,23.0,00.0,0661.4,30.6
2020-05-03T02:51:00Z,00000380,01000600,0005.40,0003.63,0002.44,0000.23,0001.17,0000.16,0000.32,0000.27,0000.22,23.0,00.0,0661.4,30.6
2020-05-03T02:52:00Z,00000380,01000600,0005.75,0003.18,0002.05,0000.09,0000.76,0000.60,0000.51,0000.49,0000.36,23.0,00.0,0661.4,30.6
2020-05-03T02:53:00Z,00000380,01000600,0005.79,0003.57,0002.26,0000.01,0000.78,0000.31,0000.39,0000.37,0000.40,23.0,00.0,0661.3,30.6
2020-05-03T02:54:00Z,00000380,01000600,0006.06,0003.88,0003.00,0000.88,0000.67,0000.82,0000.37,0000.52,0000.44,23.0,00.0,0661.3,30.6
2020-05-03T02:55:00Z,00000380,01000600,0005.80,0003.90,0002.38,0001.44,0000.55,0000.14,0000.35,0000.17,0000.14,23.0,00.0,0661.4,30.6
2020-05-03T02:56:00Z,00000380,01000600,0006.43,0003.80,0002.43,0000.53,0000.74,0000.01,0000.37,0000.36,0000.16,23.0,00.0,0661.3,30.6
2020-05-03T02:57:00Z,00000380,41000600,,,,,,,,,,23.1,00.0,0661.3,30.6
2020-05-03T02:58:00Z,00000380,61000600,,,,,,,,,,23.1,00.0,0660.3,30.6
2020-05-03T02:59:00Z,00000380,21000600,,,,,,,,,,23.3,00.0,0660.2,30.6
2020-05-03T03:00:00Z,00000380,21000600,,,,,,,,,,23.3,00.0,0660.2,30.6
2020-05-03T03:01:00Z,00000380,21000600,,,,,,,,,,23.3,00.0,0660.2,30.6
2020-05-03T03:02:00Z,00000380,21000600,,,,,,,,,,23.3,00.0,0660.2,30.6
2020-05-03T03:03:00Z,00000380,61000600,,,,,,,,,,23.3,00.0,0660.2,30.6
2020-05-03T03:04:00Z,00000380,41000600,0007.05,0004.31,0002.31,0001.31,0000.47,0000.38,0000.44,0000.44,0000.44,23.1,00.0,0661.1,30.6
2020-05-03T03:05:00Z,00000380,01000600,0006.55,0004.03,0002.70,0000.82,0000.65,0000.38,0000.44,0000.39,0000.25,23.0,00.0,0661.2,30.6
2020-05-03T03:06:00Z,00000380,01000600,0006.04,0003.53,0002.31,0000.95,0000.72,0000.76,0000.34,0000.33,0000.27,23.0,00.0,0661.2,30.6
2020-05-03T03:07:00Z,00000380,01000600,0004.80,0004.05,0002.56,0001.12,0000.36,0000.62,0000.34,0000.33,0000.31,23.0,00.0,0661.2,30.6
2020-05-03T03:08:00Z,00000380,01000600,0006.28,0004.02,0002.39,0001.56,0000.37,0000.34,0000.43,0000.31,0000.09,23.0,00.0,0661.2,30.6
2020-05-03T03:09:00Z,00000380,01000600,0005.70,0004.08,0002.98,0001.17,0000.46,0000.28,0000.20,0000.31,0000.30,23.0,00.0,0661.2,30.7
2020-05-03T03:10:00Z,00000380,01000600,0005.46,0004.27,0002.44,0001.56,0000.56,0000.67,0000.62,0000.45,0000.28,23.0,00.0,0661.2,30.7